{"data":{"norad_id":65251,"intl_designator":"2025-179S","name":"STARLINK-34989","alt_names":[],"object_type":"PAYLOAD","status":"ACTIVE","operator":null,"country":"US","launch_date":"2025-08-18","launch_site_code":"AFWTR","launch_vehicle":null,"mission":null,"orbit_class":"UNKNOWN","rcs_meters":null,"size_class":null,"mass_kg":null,"dimensions":null,"purposes":["comms"],"wikipedia_slug":null,"has_3d_model":false,"image_url":null,"decayed_at":null,"tle_current":{"epoch":"2026-05-25T03:05:13.276032Z","epoch_age_seconds":74683,"freshness":"FRESH","line1":"1 65251U 25179S   26145.12862588  .00001847  00000+0  13202-3 0  9991","line2":"2 65251  97.4462 187.9958 0001268 103.2746 256.8622 15.05657215 43498","mean_motion":15.05657215,"eccentricity":0.0001268,"inclination_deg":97.4462,"raan_deg":187.9958,"arg_perigee_deg":103.2746,"mean_anomaly_deg":256.8622,"bstar":0.00013202,"rev_number":4349,"period_min":95.63929861685,"perigee_km":548.6105998506,"apogee_km":550.36744580999,"semimajor_km":6927.6260228303,"source":"CELESTRAK","updated_at":"2026-05-25T13:38:20.727433Z"}}}